This is the latest recevied weather packets stored in our database for station/object W1SCW. If no packets are shown the sender has not sent any weather packets the latest 10 day(s).
| Time | Temp. | Humidity | Pressure | Rain* | Wind** | Luminosity | Snow |
|---|---|---|---|---|---|---|---|
| 1777645090 | 16.67° C | 99% | 1010.9 hPa | 3.05 mm | - | 39 W/m² | - |
| 1777644787 | 16.67° C | 99% | 1011.1 hPa | 1.27 mm | - | 34 W/m² | - |
| 1777644485 | 16.67° C | 99% | 1011.4 hPa | 4.83 mm | - | 26 W/m² | - |
| 1777644181 | 16.67° C | 99% | 1011.2 hPa | 8.38 mm | - | 29 W/m² | - |
| 1777643877 | 16.67° C | 99% | 1011.3 hPa | 7.11 mm | - | 28 W/m² | - |
| 1777643575 | 16.67° C | 99% | 1010.9 hPa | 4.32 mm | - | 31 W/m² | - |
| 1777643271 | 16.67° C | 99% | 1010.8 hPa | 2.29 mm | - | 20 W/m² | - |
| 1777642968 | 16.67° C | 99% | 1010.7 hPa | 2.29 mm | - | 10 W/m² | - |
| 1777642664 | 16.67° C | 99% | 1011 hPa | 3.05 mm | - | 15 W/m² | - |
| 1777642361 | 16.67° C | 99% | 1010.6 hPa | 3.56 mm | - | 23 W/m² | - |
| 1777642057 | 16.67° C | 99% | 1011 hPa | 2.29 mm | - | 16 W/m² | - |
| 1777641754 | 17.22° C | 99% | 1010.8 hPa | 2.29 mm | - | 15 W/m² | - |
| 1777641448 | 16.67° C | 99% | 1010.8 hPa | 2.29 mm | - | 9 W/m² | - |
| 1777641145 | 17.22° C | 99% | 1010.7 hPa | 4.32 mm | - | 12 W/m² | - |
| 1777640840 | 17.22° C | 99% | 1010.2 hPa | 5.33 mm | - | 10 W/m² | - |
| 1777640538 | 17.22° C | 99% | 1010.6 hPa | 4.83 mm | - | 8 W/m² | - |
| 1777640229 | 17.22° C | 99% | 1010.6 hPa | 2.29 mm | - | 8 W/m² | - |
| 1777639926 | 17.22° C | 99% | 1010.5 hPa | 1.27 mm | - | 4 W/m² | - |
| 1777639623 | 17.22° C | 99% | 1011 hPa | 0.51 mm | - | 3 W/m² | - |
| 1777639320 | 17.22° C | 99% | 1011.2 hPa | 0.51 mm | - | 2 W/m² | - |
| 1777639016 | 17.22° C | 99% | 1010.9 hPa | 4.83 mm | - | 3 W/m² | - |
| 1777638712 | 17.22° C | 99% | 1010.4 hPa | 8.89 mm | - | 4 W/m² | - |
| 1777638408 | 17.22° C | 99% | 1009.9 hPa | 6.1 mm | - | 4 W/m² | - |
| 1777638105 | 17.22° C | 99% | 1009.7 hPa | 1.27 mm | - | 5 W/m² | - |
| 1777637801 | 17.22° C | 99% | 1010.5 hPa | 0.51 mm | - | 2 W/m² | - |
* Rain latest hour (hover to see other rain measurements)
** Current wind speed in m/s (hover to see current wind gust speed)